Buffalo, NY

7:46 PM EDT on September 22, 2017 (GMT -0400)
Buffalo Niagara International

Weather History for KBUF - November, 2014

Change the Weather History Date:

Sunday, November 9, 2014

  Actual Average Record
Temperature  
Mean Temperature 42 °F 43 °F  
Max Temperature 49 °F 50 °F 70 °F (1891)
Min Temperature 35 °F 36 °F 18 °F (1991)
Degree Days  
Heating Degree Days 23 22  
Month to date heating degree days 196 186  
Since 1 July heating degree days 685 791  
Cooling Degree Days 0 0  
Month to date cooling degree days 0 0  
Year to date cooling degree days 516 544  
Moisture  
Dew Point 32 °F    
Average Humidity 74    
Maximum Humidity 89    
Minimum Humidity 58    
Precipitation  
Precipitation 0.01 in 0.13 in 1.61 in (2005)
Month to date precipitation 0.58 1.18  
Year to date precipitation 38.25 33.76  
Snow  
Snow 0.00 in 0.20 in 6.00 in (1943)
Month to date snowfall T 1.3  
Since 1 July snowfall T 2.2  
Since 1 September snowfall T 2.2  
Snow Depth 0.00 in    
Sea Level Pressure  
Sea Level Pressure 29.88 in    
Wind  
Wind Speed 9 mph (SW)    
Max Wind Speed 22 mph    
Max Gust Speed 32 mph    
Visibility 10 miles    
Events Rain    
T = Trace of Precipitation, MM = Missing Value Source: NWS Daily Summary

Daily Weather History Graph

Daily Weather History Graph

Search for Another Location

Airport or City:

Trip Planner

Search our weather history database for the weather conditions in past years. The results will help you decide how hot, cold, wet, or windy it might be!

Date:

Astronomy

Nov. 09, 2014 Rise Set
Actual Time 6:59 AM EST 4:57 PM EST
Civil Twilight 6:29 AM EST 5:27 PM EST
Nautical Twilight 5:55 AM EST 6:01 PM EST
Astronomical Twilight 5:22 AM EST 6:34 PM EST
Moon 7:27 PM EST (11/9) 9:31 AM EST (11/9)
Length of Visible Light 10h 58m
Length of Day
9h 57m
Waning Gibbous, 91% of the Moon is Illuminated
Nov 9
Waning Gibbous
Nov 14
Last Quarter
Nov 22
New
Nov 29
First Quarter
Dec 6
Full

Hourly Weather History & Observations

Time (EST) Temp. Windchill Dew Point Humidity Pressure Visibility Wind Dir Wind Speed Gust Speed Precip Events Conditions
12:49 AM 39.2 °F 33.0 °F 33.8 °F 81% 29.81 in 10.0 mi West 9.2 mph - 0.00 in   Scattered Clouds
12:54 AM 39.9 °F 33.9 °F 33.1 °F 77% 29.83 in 10.0 mi West 9.2 mph - 0.00 in   Overcast
1:54 AM 39.9 °F 34.5 °F 32.0 °F 73% 29.85 in 10.0 mi West 8.1 mph - N/A   Overcast
2:16 AM 39.0 °F 34.0 °F 32.0 °F 76% 29.84 in 10.0 mi West 6.9 mph - N/A   Overcast
2:30 AM 39.0 °F 33.4 °F 30.9 °F 73% 29.84 in 10.0 mi WSW 8.1 mph - N/A   Overcast
2:54 AM 39.0 °F 34.0 °F 30.0 °F 70% 29.86 in 10.0 mi SW 6.9 mph - N/A   Overcast
3:54 AM 37.9 °F 32.1 °F 28.9 °F 70% 29.88 in 10.0 mi WSW 8.1 mph - N/A   Overcast
4:54 AM 37.9 °F 33.5 °F 28.0 °F 68% 29.88 in 10.0 mi West 5.8 mph - N/A   Overcast
5:54 AM 37.9 °F 31.5 °F 28.9 °F 70% 29.89 in 10.0 mi WNW 9.2 mph - N/A   Overcast
6:54 AM 37.0 °F 31.0 °F 30.0 °F 76% 29.91 in 10.0 mi WNW 8.1 mph - N/A   Overcast
7:54 AM 35.1 °F 32.2 °F 30.9 °F 85% 29.94 in 10.0 mi NNW 3.5 mph - N/A   Mostly Cloudy
8:54 AM 36.0 °F 33.3 °F 32.0 °F 86% 29.95 in 10.0 mi SSW 3.5 mph - N/A   Mostly Cloudy
9:54 AM 39.0 °F 32.8 °F 30.9 °F 73% 29.95 in 10.0 mi WSW 9.2 mph - N/A   Mostly Cloudy
10:54 AM 41.0 °F 35.2 °F 28.9 °F 62% 29.94 in 10.0 mi WSW 9.2 mph - N/A   Mostly Cloudy
11:54 AM 43.0 °F 38.2 °F 30.9 °F 62% 29.92 in 10.0 mi SW 8.1 mph - N/A   Mostly Cloudy
12:54 PM 42.1 °F 35.7 °F 32.0 °F 67% 29.91 in 10.0 mi SW 11.5 mph - N/A   Overcast
1:54 PM 41.0 °F 33.9 °F 36.0 °F 82% 29.90 in 10.0 mi SSW 12.7 mph - 0.00 in Rain Light Rain
2:54 PM 41.0 °F 35.2 °F 36.0 °F 82% 29.88 in 10.0 mi South 9.2 mph - 0.01 in   Overcast
3:54 PM 44.1 °F 37.7 °F 33.1 °F 65% 29.86 in 10.0 mi SSW 12.7 mph - N/A   Mostly Cloudy
4:54 PM 43.0 °F 36.8 °F 33.1 °F 68% 29.86 in 10.0 mi SSW 11.5 mph - N/A   Mostly Cloudy
5:54 PM 43.0 °F 37.2 °F 32.0 °F 65% 29.87 in 10.0 mi South 10.4 mph - N/A   Mostly Cloudy
6:54 PM 43.0 °F 37.2 °F 30.9 °F 62% 29.86 in 10.0 mi South 10.4 mph - N/A   Mostly Cloudy
7:54 PM 43.0 °F 37.7 °F 30.0 °F 60% 29.86 in 10.0 mi SSW 9.2 mph - N/A   Mostly Cloudy
8:54 PM 44.1 °F 38.1 °F 30.0 °F 58% 29.87 in 10.0 mi SSW 11.5 mph - N/A   Mostly Cloudy
9:54 PM 44.1 °F 38.1 °F 30.9 °F 60% 29.88 in 10.0 mi SSW 11.5 mph - N/A   Mostly Cloudy
10:54 PM 45.0 °F 39.7 °F 32.0 °F 60% 29.90 in 10.0 mi SSW 10.4 mph - N/A   Mostly Cloudy
11:54 PM 48.9 °F - 35.1 °F 59% 29.90 in 10.0 mi WSW 16.1 mph 32.2 mph N/A   Overcast